Regional Weather Roundup
Issued by NWS

Home | Current Version | Previous Version | Graphics & Text | Print | Product List | Glossary On
Versions: 1 2 3 4 5 6 7 8 9 10 11 12 13 14 15 16 17 18 19 20 21 22 23 24 25 26 27 28 29 30 31 32 33 34 35 36 37 38 39 40 41 42 43 44 45 46 47 48 49 50
000
ASUS45 KTFX 221810
RWRMT
MONTANA REGIONAL WEATHER ROUNDUP
NATIONAL WEATHER SERVICE GREAT FALLS MT
1200 PM MDT FRI JUL 22 2016

NOTE: "FAIR" INDICATES FEW OR NO CLOUDS BELOW 12000 FEET WITH NO
SIGNIFICANT WEATHER AND/OR OBSTRUCTIONS TO VISIBILITY.

MTZ001>007-043-221900-
WEST OF THE DIVIDE

CITY           SKY/WX    TMP DP  RH WIND       PRES   REMARKS
KALISPELL      SUNNY     77  48  35 SE12      29.95R
MISSOULA       SUNNY     81  48  31 CALM      30.01F
BUTTE          SUNNY     83  39  21 NE12      30.09F
MULLAN PASS    MOSUNNY   57  44  62 VRB7      30.21R
ANACONDA         N/A     88  36  15 S14       30.05S
DEER LODGE       N/A     79  46  31 N8        30.06S
EUREKA           N/A     73  43  33 NW5       29.98R
HAMILTON         N/A     79  48  34 N5        30.02S
LIBBY            N/A     75  48  38 NW8       29.99R
PLAINS           N/A     83  49  30 S14       29.99
RONAN            N/A     79  50  36 SE7       30.04S
$$

MTZ008-052>055-221900-
SOUTHWEST MONTANA

CITY           SKY/WX    TMP DP  RH WIND       PRES   REMARKS
BOZEMAN        CLOUDY    83  51  33 N3        30.04F
DILLON         SUNNY     82  48  30 N7        30.06F
W YELLOWSTONE  CLOUDY    79  39  24 SW17G24   30.28F
ENNIS          SUNNY     86  36  16 S22G31    30.15F
THREE FORKS      N/A     82 -13   2 NE3       30.01F
TWIN BRIDGES     N/A     81  49  32 SW6       30.04
$$

MTZ009-010-012-014-046-048-049-054-221900-
EAST SLOPES AND CENTRAL MONTANA

CITY           SKY/WX    TMP DP  RH WIND       PRES   REMARKS
CUT BANK       SUNNY     82  45  27 NE15      29.97F
GREAT FALLS    PTSUNNY   80  41  24 SW5       29.96F
MALMSTROM AFB  PTSUNNY   79  44  28 S2        29.95F
HELENA         MOSUNNY   82  42  24 N7        29.98F
CHOTEAU          N/A     81  43  26 VRB5G12   30.00S
$$

MTZ011-013-016-021-045-047-050-051-221900-
NORTH CENTRAL MONTANA

CITY           SKY/WX    TMP DP  RH WIND       PRES   REMARKS
HAVRE          SUNNY     86  60  41 E18       29.91F
LEWISTOWN      MOSUNNY   88  55  32 E17       30.00S
N BAR RANCH      N/A     81  52  36 SE9       30.07F
CHINOOK          N/A     82  59  44 E15G22    29.93F
$$

MTZ017>020-022>027-061-062-221900-
NORTHEAST MONTANA

CITY           SKY/WX    TMP DP  RH WIND       PRES   REMARKS
GLASGOW        SUNNY     86  57  37 E16       29.97F
JORDAN           N/A     92  47  21 SE18      29.97S
SIDNEY         CLOUDY    86  62  44 SE12      30.01F
WOLF POINT     SUNNY     90  58  33 E15       29.98F
PLENTYWOOD       N/A     79  57  47 E10G16    30.06S
POPLAR           N/A     86  57  37 E18       29.98F
SCOBEY           N/A     85  61  44 E10       30.04S
$$

MTZ028>42-056>058-221900-
SOUTHCENTRAL AND SOUTHEAST MONTANA

CITY           SKY/WX    TMP DP  RH WIND       PRES   REMARKS
BAKER          SUNNY     90  65  43 SE20      30.03F HX  92
BILLINGS       PTSUNNY   86  47  25 SE3       30.01F
LIVINGSTON     MOSUNNY   84  43  23 E8        30.06F
MILES CITY     SUNNY     94  59  31 E17G24    29.95F HX  93
EKALAKA          N/A     89  61  39 E13       30.02S
FORSYTH          N/A     91  54  27 E12G18    29.95S
LAUREL           N/A     83  47  28 N1        30.01F
ROUNDUP          N/A     80  57  45 E2        29.93F
$$

REGIONAL REPORTS...DAKOTAS

CITY           SKY/WX    TMP DP  RH WIND       PRES   REMARKS
WILLISTON      CLOUDY    88  52  29 SE15      30.04S
MINOT          CLOUDY    86  59  39 N9        30.06F
DICKINSON      MOSUNNY   81  71  71 NE15      30.04F
CROSBY           N/A     73  66  78 E9        30.07F
WATFORD CITY     N/A     84  55  37 E17       30.05F
BISMARCK       CLOUDY    86  75  69 SE8       30.00S HX  95
GRAND FORKS    MOSUNNY   85  63  47 N7        30.03S
FARGO          SUNNY     90  66  45 CALM      30.00S HX  92
BUFFALO SD       N/A     89  65  44 E15G22    29.97F HX  91
RAPID CITY     CLOUDY    98  57  25 S16G23    30.05S HX  97
$$

REGIONAL REPORTS...WYOMING/IDAHO/WASHINGTON

CITY           SKY/WX    TMP DP  RH WIND       PRES   REMARKS
GILLETTE       SUNNY     98  39  13 S25G32    30.07F HX  93
SHERIDAN       SUNNY     95  42  16 NE7       30.04S HX  91
BUFFALO WY     SUNNY    100  39  12 SE15      30.09F HX  95
CODY           MOSUNNY   88  39  18 W3        30.14S
YELLOWSTONE LA   N/A     76  40  27 VRB7G18   30.39F
IDAHO FALLS    MOSUNNY   84  35  17 S17G28    30.16S
SALMON         SUNNY     75  41  29 NW6       30.03F
BOISE          SUNNY     81  43  26 NW6       30.13S
SPOKANE        RAIN      60  54  80 W14       30.16R
$$

REGIONAL REPORTS...ALBERTA

CITY           SKY/WX    TMP DP  RH WIND       PRES   REMARKS
EDMONTON       MOSUNNY   75  55  50 S14G20    29.94F
CALGARY        MOSUNNY   70  54  56 VRB2      30.00F
LETHBRIDGE     MOSUNNY   72  54  53 N6        29.96F
MEDICINE HAT   MOSUNNY   79  50  36 NE5       29.95F
WATERTON GATE    N/A     75  45  33 NE7         N/A
CARDSTON         N/A     77  50  38 SE2         N/A
MILK RIVER       N/A     77  54  44 NE9         N/A
ONEFOUR          N/A     88  46  23 SE14G20     N/A
$$

REGIONAL REPORTS...SASKATCHEWAN

CITY           SKY/WX    TMP DP  RH WIND       PRES   REMARKS
SWIFT CURRENT  SUNNY     77  57  50 E17G24    30.03F
REGINA         MOSUNNY   81  59  47 SE9       30.06S
SASKATOON      PTSUNNY   77  52  41 CALM      30.05S
VAL MARIE        N/A     82  55  39 SE15        N/A
ROCKGLEN         N/A     81  55  41 E12G17      N/A
ASSINIBOIA       N/A     73  55  53 S13         N/A
$$



USA.gov is the U.S. government's official web portal to all federal, state and local government web resources and services.